Location: Unspecified
(48.7670°N, 0.0000°E)
Time: 10:30:51
(UTC+00:00)

Altair - Pass Details

Date: 04 July 2019
Orbit: 1501 x 1683 km, 47.2° (Epoch: 20 July)

Event Time Altitude Azimuth Distance (km) Brightness Sun altitude
Rises 15:28:57 0° 207° (SSW) 4,626 10.5 42.3°
Reaches altitude 10° 15:32:17 10° 199° (SSW) 3,657 10.0 41.8°
Maximum altitude 15:40:14 34° 138° (SE) 2,310 8.6 40.5°
Drops below altitude 10° 15:48:25 10° 78° (ENE) 3,765 9.2 39.2°
Sets 15:51:53 0° 70° (ENE) 4,779 9.6 38.6°
